Flag for Czech Republic Weather past 2 weeks in Liberec, Czech Republic

Now
57 °F

Overcast.


Feels Like: 56 °F
Forecast: 46 / 64 °F
Wind: 5 mph from Southeast

Location: Liberec


UV Index: 3 (Moderate)

Visibility: 19 mi


Pressure: 29.73 "Hg

Humidity: 65%

Dew point: 45 °F

Location of LiberecLocation

Historic Weather in Liberec

°F

Liberec temperature yesterday

Maximum temperature yesterday: 65 °F (at 3:00 PM)
Minimum temperature yesterday: 41 °F (at 6:00 AM)
Average temperature yesterday: 55 °F

Past Weeks' High & Low Weather Summary

 TemperatureHumidityPressure
High66 °F (Apr 7, 4:00 PM)99% (Apr 11, 8:00 AM)30.46 "Hg (Apr 11, 8:00 AM)
Low26 °F (Apr 17, 6:00 AM)30% (Apr 17, 5:00 PM)29.74 "Hg (Apr 21, 3:00 PM)
Average47 °F72%30.02 "Hg
* Reported Apr 6 3:00 PM — Apr 21 3:00 PM, Liberec, Weather by CustomWeather, © 2014

Note: Actual official high and low records may vary slightly from our data, if they occured in-between our weather recording intervals... More about our weather records

Advertising

Historic Weather Conditions — Data for Previous 24 hours

 ConditionsComfort  
Time TempWeatherWind HumidityBarometerVisibility
3:00 PM
Apr 21
56 °FOvercast.5 mph67%29.74 "Hg14 mi
2:00 PM53 °FOvercast.2 mph76%29.75 "Hg14 mi
1:00 PM53 °FLight rain. Overcast.5 mph71%29.76 "Hg9 mi
12:00 PM55 °FOvercast.5 mph66%29.75 "Hg14 mi
11:00 AM55 °FOvercast.5 mph66%29.75 "Hg16 mi
10:00 AM55 °FOvercast.5 mph63%29.75 "Hg16 mi
9:00 AM55 °FScattered clouds.5 mph59%29.76 "Hg22 mi
8:00 AM53 °FPassing clouds.3 mph64%29.77 "Hg25 mi
7:00 AM48 °FCool.3 mph78%29.79 "Hg12 mi
6:00 AM42 °FQuite cool.2 mph85%29.80 "Hg12 mi
5:00 AM44 °FQuite cool.3 mph84%29.79 "Hg12 mi
4:00 AM45 °FQuite cool.3 mph85%29.79 "Hg12 mi
3:00 AM49 °FCool.3 mph78%29.78 "Hg12 mi
2:00 AM48 °FCool.3 mph79%29.80 "Hg12 mi
1:00 AM48 °FCool.3 mph79%29.81 "Hg12 mi
12:00 AM48 °FCool.3 mph75%29.82 "Hg12 mi
11:00 PM
Apr 20
45 °FCool.1 mph79%29.83 "Hg7 mi
10:00 PM49 °FPassing clouds.1 mph74%29.83 "Hg16 mi
9:00 PM51 °FPassing clouds.2 mph69%29.82 "Hg16 mi
8:00 PM56 °FPartly sunny.2 mph58%29.80 "Hg17 mi
7:00 PM59 °FPartly sunny.3 mph53%29.78 "Hg22 mi
6:00 PM61 °FRefreshingly cool.5 mph50%29.78 "Hg12 mi
5:00 PM62 °FPartly sunny.3 mph44%29.78 "Hg28 mi
4:00 PM65 °FPartly sunny.2 mph43%29.78 "Hg28 mi
Weather by CustomWeather, © 2014

See weather overview